Home   Weather   Peoria   Past weeks

Flag for USA Past Weather in Peoria, Illinois, USA — Yesterday and Last 2 Weeks

Now
82 °F

Partly sunny.


Feels Like: 84 °F
Forecast: 59 / 82 °F
Wind: 6 mph from Southeast

Location: Greater Peoria Regional Airport

Current Time: Jul 25, 2017 at 4:08:25 pm

Latest Report: Jul 25, 2017 at 2:54 pm


Visibility: 10 mi

Pressure: 30.14 "Hg

Humidity: 56%

Dew Point: 65 °F

Location of PeoriaLocation

Past Weather in Peoria — Graph

°F

Peoria Temperature Yesterday

Maximum temperature yesterday: 77 °F (at 5:54 pm)
Minimum temperature yesterday: 66 °F (at 5:54 am)
Average temperature yesterday: 71 °F

High & Low Weather Summary for the Past Weeks

 TemperatureHumidityPressure
High95 °F (Jul 20, 4:54 pm)100% (Jul 11, 3:54 am)30.18 "Hg (Jul 11, 3:54 am)
Low59 °F (Jul 15, 4:54 am)43% (Jul 17, 1:54 pm)29.76 "Hg (Jul 22, 6:54 pm)
Average77 °F79%29.97 "Hg
* Reported Jul 10 2:54 pm — Jul 25 2:54 pm, Peoria. Weather by CustomWeather, © 2017

Note: Actual official high and low records may vary slightly from our data, if they occured in-between our weather recording intervals... More about our weather records

Advertising

Peoria Weather History for the Previous 24 Hours

Scroll right to see more
 ConditionsComfort  
Time TempWeatherWind HumidityBarometerVisibility
2:54 pm
Tue, Jul 25
82 °FPartly sunny.6 mph56%30.14 "Hg10 mi
1:54 pm81 °FSunny.7 mph60%30.14 "Hg10 mi
12:54 pm81 °FPassing clouds.8 mph62%30.14 "Hg10 mi
11:54 am78 °FPassing clouds.6 mph66%30.16 "Hg10 mi
10:54 am76 °FSunny.7 mph69%30.15 "Hg10 mi
9:54 am74 °FSunny.6 mph74%30.15 "Hg10 mi
8:54 am71 °FSunny.7 mph76%30.15 "Hg10 mi
7:54 am68 °FSunny.7 mph82%30.15 "Hg10 mi
6:54 am65 °FSunny.7 mph91%30.14 "Hg10 mi
5:54 am63 °FSunny.6 mph97%30.13 "Hg10 mi
4:54 am63 °FClear.6 mph93%30.12 "Hg10 mi
3:54 am63 °FClear.8 mph93%30.11 "Hg10 mi
2:54 am64 °FClear.8 mph90%30.11 "Hg10 mi
1:54 am65 °FClear.5 mph87%30.11 "Hg10 mi
12:54 am67 °FClear.8 mph85%30.10 "Hg10 mi
11:54 pm
Mon, Jul 24
68 °FClear.7 mph84%30.08 "Hg10 mi
10:54 pm69 °FClear.7 mph81%30.07 "Hg10 mi
9:54 pm70 °FClear.6 mph81%30.06 "Hg10 mi
8:54 pm71 °FClear.5 mph81%30.03 "Hg10 mi
7:54 pm73 °FSunny.6 mph76%30.02 "Hg10 mi
6:54 pm77 °FSunny.8 mph66%30.02 "Hg10 mi
5:54 pm77 °FPassing clouds.8 mph69%30.02 "Hg10 mi
4:54 pm76 °FPartly sunny.7 mph72%30.02 "Hg10 mi
Weather by CustomWeather, © 2017

See weather overviewHow to use our weather pages